Location: Bothwell
(41.7170°N, 112.2589°W)
Time: 14:43:50
(UTC+00:00)

Tiros 1 - Pass Details

Date: 17 May 2026
Orbit: 618 x 649 km, 48.4° (Epoch: 7 June)

Event Time Altitude Azimuth Distance (km) Brightness Sun altitude
Rises 07:56:33 0° 267° (W) 2,916 - -28.5°
Reaches altitude 10° 07:58:58 10° 274° (W) 2,004 - -28.4°
Exits shadow 08:02:53 41° 328° (NNW) 904 8.1 -28.3°
Maximum altitude 08:03:22 43° 346° (NNW) 882 8.1 -28.3°
Drops below altitude 10° 08:07:44 10° 58° (ENE) 1,990 10.1 -28.1°
Sets 08:10:09 0° 66° (ENE) 2,894 11.0 -28.1°
